TimePST,TemperatureF,Dew PointF,Humidity,Sea Level PressureIn,VisibilityMPH,Wind Direction,Wind SpeedMPH,Gust SpeedMPH,PrecipitationIn,Events,Conditions,WindDirDegrees,DateUTC
12:56 AM,42.1,36.0,79,30.10,10.0,Calm,Calm,-,N/A,,Clear,0,2013-02-11 08:56:00
1:56 AM,41.0,35.1,79,30.11,10.0,Calm,Calm,-,N/A,,Clear,0,2013-02-11 09:56:00
2:56 AM,39.9,35.1,83,30.12,10.0,Calm,Calm,-,N/A,,Clear,0,2013-02-11 10:56:00
3:56 AM,41.0,34.0,76,30.11,10.0,Calm,Calm,-,N/A,,Clear,0,2013-02-11 11:56:00
4:56 AM,39.0,35.1,86,30.12,10.0,Calm,Calm,-,N/A,,Clear,0,2013-02-11 12:56:00
5:56 AM,39.9,34.0,79,30.14,10.0,Calm,Calm,-,N/A,,Clear,0,2013-02-11 13:56:00
6:56 AM,39.0,34.0,82,30.17,10.0,Calm,Calm,-,N/A,,Clear,0,2013-02-11 14:56:00
7:56 AM,39.9,35.1,83,30.19,10.0,ESE,4.6,-,N/A,,Clear,110,2013-02-11 15:56:00
8:56 AM,50.0,39.9,68,30.20,10.0,Calm,Calm,-,N/A,,Clear,0,2013-02-11 16:56:00
9:56 AM,53.1,28.0,38,30.22,10.0,North,4.6,-,N/A,,Clear,350,2013-02-11 17:56:00
10:56 AM,55.0,27.0,34,30.23,10.0,Calm,Calm,-,N/A,,Clear,0,2013-02-11 18:56:00
11:56 AM,57.9,28.9,33,30.22,10.0,NNW,4.6,-,N/A,,Clear,340,2013-02-11 19:56:00
12:56 PM,60.1,26.1,27,30.19,10.0,NNW,3.5,-,N/A,,Clear,340,2013-02-11 20:56:00
1:56 PM,63.0,26.1,25,30.18,10.0,North,3.5,-,N/A,,Clear,350,2013-02-11 21:56:00
2:56 PM,62.1,25.0,24,30.17,10.0,Calm,Calm,-,N/A,,Clear,0,2013-02-11 22:56:00
3:56 PM,64.0,26.1,24,30.17,10.0,North,3.5,-,N/A,,Clear,10,2013-02-11 23:56:00
4:56 PM,61.0,28.9,30,30.18,10.0,North,4.6,-,N/A,,Clear,10,2013-02-12 00:56:00
5:56 PM,55.0,39.0,55,30.19,10.0,North,5.8,-,N/A,,Clear,350,2013-02-12 01:56:00
6:56 PM,52.0,42.1,69,30.21,10.0,NNW,6.9,-,N/A,,Clear,340,2013-02-12 02:56:00
7:56 PM,50.0,45.0,83,30.22,10.0,North,3.5,-,N/A,,Clear,350,2013-02-12 03:56:00
8:56 PM,51.1,46.0,83,30.24,10.0,Calm,Calm,-,N/A,,Clear,0,2013-02-12 04:56:00
9:56 PM,48.0,43.0,83,30.25,10.0,Calm,Calm,-,N/A,,Clear,0,2013-02-12 05:56:00
10:56 PM,43.0,37.0,80,30.25,10.0,ESE,4.6,-,N/A,,Clear,120,2013-02-12 06:56:00
11:56 PM,46.0,37.0,71,30.26,10.0,Calm,Calm,-,N/A,,Clear,0,2013-02-12 07:56:00